"Period start","avg(HW err(1)/warn(2) (#))","avg(Visibility (m))","avg(Weather code (#))","avg(Precip intensity (mm/h))","min(HW err(1)/warn(2) (#))","max(HW err(1)/warn(2) (#))","std(HW err(1)/warn(2) (#))","med(HW err(1)/warn(2) (#))","min(Visibility (m))","max(Visibility (m))","std(Visibility (m))","med(Visibility (m))","min(Weather code (#))","max(Weather code (#))","std(Weather code (#))","med(Weather code (#))","min(Precip intensity (mm/h))","max(Precip intensity (mm/h))","std(Precip intensity (mm/h))","med(Precip intensity (mm/h))"
2014-11-18 00:00:00,2,50000,0,0.00,2,2,0,2,50000,50000,0,50000,0,0,0,0,0.00,0.00,0.00,0.00
2014-11-18 00:10:00,2,49988,0,0.00,2,2,0,2,49883,50000,35,50000,0,0,0,0,0.00,0.00,0.00,0.00
2014-11-18 00:20:00,2,50000,0,0.00,2,2,0,2,50000,50000,0,50000,0,0,0,0,0.00,0.00,0.00,0.00
2014-11-18 00:30:00,2,50000,0,0.00,2,2,0,2,50000,50000,0,50000,0,0,0,0,0.00,0.00,0.00,0.00
2014-11-18 00:40:00,2,50000,0,0.00,2,2,0,2,50000,50000,0,50000,0,0,0,0,0.00,0.00,0.00,0.00
2014-11-18 00:50:00,2,50000,0,0.00,2,2,0,2,50000,50000,0,50000,0,0,0,0,0.00,0.00,0.00,0.00
2014-11-18 01:00:00,2,50000,0,0.00,2,2,0,2,50000,50000,0,50000,0,0,0,0,0.00,0.00,0.00,0.00
2014-11-18 01:10:00,2,50000,0,0.00,2,2,0,2,50000,50000,0,50000,0,0,0,0,0.00,0.00,0.00,0.00
2014-11-18 01:20:00,2,50000,0,0.00,2,2,0,2,50000,50000,0,50000,0,0,0,0,0.00,0.00,0.00,0.00
2014-11-18 01:30:00,2,50000,0,0.00,2,2,0,2,50000,50000,0,50000,0,0,0,0,0.00,0.00,0.00,0.00
2014-11-18 01:40:00,2,49948,0,0.00,2,2,0,2,49478,50000,157,50000,0,0,0,0,0.00,0.00,0.00,0.00
2014-11-18 01:50:00,2,50000,0,0.00,2,2,0,2,50000,50000,0,50000,0,0,0,0,0.00,0.00,0.00,0.00
2014-11-18 02:00:00,2,49996,0,0.00,2,2,0,2,49958,50000,13,50000,0,0,0,0,0.00,0.00,0.00,0.00
2014-11-18 02:10:00,2,49996,0,0.00,2,2,0,2,49960,50000,12,50000,0,0,0,0,0.00,0.00,0.00,0.00
2014-11-18 02:20:00,2,50000,0,0.00,2,2,0,2,50000,50000,0,50000,0,0,0,0,0.00,0.00,0.00,0.00
2014-11-18 02:30:00,2,50000,0,0.00,2,2,0,2,50000,50000,0,50000,0,0,0,0,0.00,0.00,0.00,0.00
2014-11-18 02:40:00,2,50000,0,0.00,2,2,0,2,50000,50000,0,50000,0,0,0,0,0.00,0.00,0.00,0.00
2014-11-18 02:50:00,2,49717,0,0.00,2,2,0,2,48304,50000,580,50000,0,0,0,0,0.00,0.00,0.00,0.00
2014-11-18 03:00:00,2,50000,0,0.00,2,2,0,2,50000,50000,0,50000,0,0,0,0,0.00,0.00,0.00,0.00
2014-11-18 03:10:00,2,49886,0,0.00,2,2,0,2,49198,50000,251,50000,0,0,0,0,0.00,0.00,0.00,0.00
2014-11-18 03:20:00,2,46922,0,0.00,2,2,0,2,42324,50000,2774,47798,0,0,0,0,0.00,0.00,0.00,0.00
2014-11-18 03:30:00,2,43057,0,0.00,2,2,0,2,28857,50000,8712,50000,0,0,0,0,0.00,0.00,0.00,0.00
2014-11-18 03:40:00,2,33218,0,0.00,2,2,0,2,26868,39664,3922,33842,0,0,0,0,0.00,0.00,0.00,0.00
2014-11-18 03:50:00,2,24957,0,0.00,2,2,0,2,18832,31669,4711,25704,0,0,0,0,0.00,0.00,0.00,0.00
2014-11-18 04:00:00,2,33844,0,0.00,2,2,0,2,23196,50000,9590,28640,0,0,0,0,0.00,0.00,0.00,0.00
2014-11-18 04:10:00,2,49545,0,0.00,2,2,0,2,47651,50000,892,50000,0,0,0,0,0.00,0.00,0.00,0.00
2014-11-18 04:20:00,2,48867,0,0.00,2,2,0,2,44280,50000,2018,50000,0,0,0,0,0.00,0.00,0.00,0.00
2014-11-18 04:30:00,2,50000,0,0.00,2,2,0,2,50000,50000,0,50000,0,0,0,0,0.00,0.00,0.00,0.00
2014-11-18 04:40:00,2,50000,0,0.00,2,2,0,2,50000,50000,0,50000,0,0,0,0,0.00,0.00,0.00,0.00
2014-11-18 04:50:00,2,50000,0,0.00,2,2,0,2,50000,50000,0,50000,0,0,0,0,0.00,0.00,0.00,0.00
2014-11-18 05:00:00,2,50000,0,0.00,2,2,0,2,50000,50000,0,50000,0,0,0,0,0.00,0.00,0.00,0.00
2014-11-18 05:10:00,2,50000,0,0.00,2,2,0,2,50000,50000,0,50000,0,0,0,0,0.00,0.00,0.00,0.00
2014-11-18 05:20:00,2,50000,0,0.00,2,2,0,2,50000,50000,0,50000,0,0,0,0,0.00,0.00,0.00,0.00
2014-11-18 05:30:00,2,50000,0,0.00,2,2,0,2,50000,50000,0,50000,0,0,0,0,0.00,0.00,0.00,0.00
2014-11-18 05:40:00,2,50000,0,0.00,2,2,0,2,50000,50000,0,50000,0,0,0,0,0.00,0.00,0.00,0.00
2014-11-18 05:50:00,2,50000,0,0.00,2,2,0,2,50000,50000,0,50000,0,0,0,0,0.00,0.00,0.00,0.00
2014-11-18 06:00:00,2,49794,0,0.00,2,2,0,2,48727,50000,427,50000,0,0,0,0,0.00,0.00,0.00,0.00
2014-11-18 06:10:00,2,50000,0,0.00,2,2,0,2,50000,50000,0,50000,0,0,0,0,0.00,0.00,0.00,0.00
2014-11-18 06:20:00,2,50000,0,0.00,2,2,0,2,50000,50000,0,50000,0,0,0,0,0.00,0.00,0.00,0.00
2014-11-18 06:30:00,2,50000,0,0.00,2,2,0,2,50000,50000,0,50000,0,0,0,0,0.00,0.00,0.00,0.00
2014-11-18 06:40:00,2,50000,0,0.00,2,2,0,2,50000,50000,0,50000,0,0,0,0,0.00,0.00,0.00,0.00
2014-11-18 06:50:00,2,50000,0,0.00,2,2,0,2,50000,50000,0,50000,0,0,0,0,0.00,0.00,0.00,0.00
2014-11-18 07:00:00,2,50000,0,0.00,2,2,0,2,50000,50000,0,50000,0,0,0,0,0.00,0.00,0.00,0.00
2014-11-18 07:10:00,2,50000,0,0.00,2,2,0,2,50000,50000,0,50000,0,0,0,0,0.00,0.00,0.00,0.00
2014-11-18 07:20:00,2,50000,0,0.00,2,2,0,2,50000,50000,0,50000,0,0,0,0,0.00,0.00,0.00,0.00
2014-11-18 07:30:00,2,50000,0,0.00,2,2,0,2,50000,50000,0,50000,0,0,0,0,0.00,0.00,0.00,0.00
2014-11-18 07:40:00,2,49987,0,0.00,2,2,0,2,49868,50000,40,50000,0,0,0,0,0.00,0.00,0.00,0.00
2014-11-18 07:50:00,2,50000,0,0.00,2,2,0,2,50000,50000,0,50000,0,0,0,0,0.00,0.00,0.00,0.00
2014-11-18 08:00:00,2,50000,0,0.00,2,2,0,2,50000,50000,0,50000,0,0,0,0,0.00,0.00,0.00,0.00
2014-11-18 08:10:00,2,50000,0,0.00,2,2,0,2,50000,50000,0,50000,0,0,0,0,0.00,0.00,0.00,0.00
2014-11-18 08:20:00,2,50000,0,0.00,2,2,0,2,50000,50000,0,50000,0,0,0,0,0.00,0.00,0.00,0.00
2014-11-18 08:30:00,2,50000,0,0.00,2,2,0,2,50000,50000,0,50000,0,0,0,0,0.00,0.00,0.00,0.00
2014-11-18 08:40:00,2,50000,0,0.00,2,2,0,2,50000,50000,0,50000,0,0,0,0,0.00,0.00,0.00,0.00
2014-11-18 08:50:00,2,50000,0,0.00,2,2,0,2,50000,50000,0,50000,0,0,0,0,0.00,0.00,0.00,0.00
2014-11-18 09:00:00,2,50000,0,0.00,2,2,0,2,50000,50000,0,50000,0,0,0,0,0.00,0.00,0.00,0.00
2014-11-18 09:10:00,2,50000,0,0.00,2,2,0,2,50000,50000,0,50000,0,0,0,0,0.00,0.00,0.00,0.00
2014-11-18 09:20:00,2,50000,0,0.00,2,2,0,2,50000,50000,0,50000,0,0,0,0,0.00,0.00,0.00,0.00
2014-11-18 09:30:00,2,50000,0,0.00,2,2,0,2,50000,50000,0,50000,0,0,0,0,0.00,0.00,0.00,0.00
2014-11-18 09:40:00,2,50000,0,0.00,2,2,0,2,50000,50000,0,50000,0,0,0,0,0.00,0.00,0.00,0.00
2014-11-18 09:50:00,2,50000,0,0.00,2,2,0,2,50000,50000,0,50000,0,0,0,0,0.00,0.00,0.00,0.00
2014-11-18 10:00:00,2,50000,0,0.00,2,2,0,2,50000,50000,0,50000,0,0,0,0,0.00,0.00,0.00,0.00
2014-11-18 10:10:00,2,50000,0,0.00,2,2,0,2,50000,50000,0,50000,0,0,0,0,0.00,0.00,0.00,0.00
2014-11-18 10:20:00,2,50000,0,0.00,2,2,0,2,50000,50000,0,50000,0,0,0,0,0.00,0.00,0.00,0.00
2014-11-18 10:30:00,2,50000,0,0.00,2,2,0,2,50000,50000,0,50000,0,0,0,0,0.00,0.00,0.00,0.00
2014-11-18 10:40:00,2,50000,0,0.00,2,2,0,2,50000,50000,0,50000,0,0,0,0,0.00,0.00,0.00,0.00
2014-11-18 10:50:00,2,50000,0,0.00,2,2,0,2,50000,50000,0,50000,0,0,0,0,0.00,0.00,0.00,0.00
2014-11-18 11:00:00,2,49844,0,0.00,2,2,0,2,48438,50000,469,50000,0,0,0,0,0.00,0.00,0.00,0.00
2014-11-18 11:10:00,2,50000,0,0.00,2,2,0,2,50000,50000,0,50000,0,0,0,0,0.00,0.00,0.00,0.00
2014-11-18 11:20:00,2,50000,0,0.00,2,2,0,2,50000,50000,0,50000,0,0,0,0,0.00,0.00,0.00,0.00
2014-11-18 11:30:00,2,50000,0,0.00,2,2,0,2,50000,50000,0,50000,0,0,0,0,0.00,0.00,0.00,0.00
2014-11-18 11:40:00,2,50000,0,0.00,2,2,0,2,50000,50000,0,50000,0,0,0,0,0.00,0.00,0.00,0.00
2014-11-18 11:50:00,2,50000,0,0.00,2,2,0,2,50000,50000,0,50000,0,0,0,0,0.00,0.00,0.00,0.00
2014-11-18 12:00:00,2,50000,0,0.00,2,2,0,2,50000,50000,0,50000,0,0,0,0,0.00,0.00,0.00,0.00
2014-11-18 12:10:00,2,50000,0,0.00,2,2,0,2,50000,50000,0,50000,0,0,0,0,0.00,0.00,0.00,0.00
2014-11-18 12:20:00,2,50000,0,0.00,2,2,0,2,50000,50000,0,50000,0,0,0,0,0.00,0.00,0.00,0.00
2014-11-18 12:30:00,2,50000,0,0.00,2,2,0,2,50000,50000,0,50000,0,0,0,0,0.00,0.00,0.00,0.00
2014-11-18 12:40:00,2,50000,0,0.00,2,2,0,2,50000,50000,0,50000,0,0,0,0,0.00,0.00,0.00,0.00
2014-11-18 12:50:00,2,50000,0,0.00,2,2,0,2,50000,50000,0,50000,0,0,0,0,0.00,0.00,0.00,0.00
2014-11-18 13:00:00,2,50000,0,0.00,2,2,0,2,50000,50000,0,50000,0,0,0,0,0.00,0.00,0.00,0.00
2014-11-18 13:10:00,2,50000,0,0.00,2,2,0,2,50000,50000,0,50000,0,0,0,0,0.00,0.00,0.00,0.00
2014-11-18 13:20:00,2,49763,0,0.00,2,2,0,2,47942,50000,614,50000,0,0,0,0,0.00,0.00,0.00,0.00
2014-11-18 13:30:00,2,49916,0,0.00,2,2,0,2,49162,50000,251,50000,0,0,0,0,0.00,0.00,0.00,0.00
2014-11-18 13:40:00,2,50000,0,0.00,2,2,0,2,50000,50000,0,50000,0,0,0,0,0.00,0.00,0.00,0.00
2014-11-18 13:50:00,2,50000,0,0.00,2,2,0,2,50000,50000,0,50000,0,0,0,0,0.00,0.00,0.00,0.00
2014-11-18 14:00:00,2,50000,0,0.00,2,2,0,2,50000,50000,0,50000,0,0,0,0,0.00,0.00,0.00,0.00
2014-11-18 14:10:00,2,50000,0,0.00,2,2,0,2,50000,50000,0,50000,0,0,0,0,0.00,0.00,0.00,0.00
2014-11-18 14:20:00,2,49783,0,0.00,2,2,0,2,47832,50000,650,50000,0,0,0,0,0.00,0.00,0.00,0.00
2014-11-18 14:30:00,2,50000,0,0.00,2,2,0,2,50000,50000,0,50000,0,0,0,0,0.00,0.00,0.00,0.00
2014-11-18 14:40:00,1,50000,0,0.00,1,2,0,1,50000,50000,0,50000,0,0,0,0,0.00,0.00,0.00,0.00
2014-11-18 14:50:00,1,50000,,0.00,1,2,0,1,50000,50000,0,50000,,,,,0.00,0.00,0.00,0.00
2014-11-18 15:00:00,2,30000,,0.00,1,2,0,2,0,50000,24495,50000,,,,,0.00,0.00,0.00,0.00
2014-11-18 15:10:00,2,30000,,0.00,1,2,0,2,0,50000,24495,50000,,,,,0.00,0.00,0.00,0.00
2014-11-18 15:20:00,2,50000,,0.00,1,2,0,2,50000,50000,0,50000,,,,,0.00,0.00,0.00,0.00
2014-11-18 15:30:00,2,50000,0,0.00,2,2,0,2,50000,50000,0,50000,0,0,0,0,0.00,0.00,0.00,0.00
2014-11-18 15:40:00,2,50000,0,0.00,2,2,0,2,50000,50000,0,50000,0,0,0,0,0.00,0.00,0.00,0.00
2014-11-18 15:50:00,2,50000,0,0.00,2,2,0,2,50000,50000,0,50000,0,0,0,0,0.00,0.00,0.00,0.00
2014-11-18 16:00:00,2,49970,0,0.00,2,2,0,2,49845,50000,59,50000,0,0,0,0,0.00,0.00,0.00,0.00
2014-11-18 16:10:00,2,49866,0,0.00,2,2,0,2,48662,50000,401,50000,0,0,0,0,0.00,0.00,0.00,0.00
2014-11-18 16:20:00,2,50000,0,0.00,2,2,0,2,50000,50000,0,50000,0,0,0,0,0.00,0.00,0.00,0.00
2014-11-18 16:30:00,2,50000,0,0.00,2,2,0,2,50000,50000,0,50000,0,0,0,0,0.00,0.00,0.00,0.00
2014-11-18 16:40:00,2,50000,0,0.00,1,2,0,2,50000,50000,0,50000,0,0,0,0,0.00,0.00,0.00,0.00
2014-11-18 16:50:00,2,41667,,0.00,1,2,0,2,0,50000,18634,50000,,,,,0.00,0.00,0.00,0.00
2014-11-18 17:00:00,2,50000,0,0.00,2,2,0,2,50000,50000,0,50000,0,0,0,0,0.00,0.00,0.00,0.00
2014-11-18 17:10:00,2,50000,0,0.00,2,2,0,2,50000,50000,0,50000,0,0,0,0,0.00,0.00,0.00,0.00
2014-11-18 17:20:00,2,42857,0,0.00,1,2,0,2,0,50000,17496,50000,0,0,0,0,0.00,0.00,0.00,0.00
2014-11-18 17:30:00,1,,,,1,1,0,1,,,,,,,,,,,,
2014-11-18 17:40:00,1,,,,1,1,0,1,,,,,,,,,,,,
2014-11-18 17:50:00,1,,,,1,1,0,1,,,,,,,,,,,,
2014-11-18 18:00:00,1,,,,1,1,0,1,,,,,,,,,,,,
2014-11-18 18:10:00,1,24409,,0.00,1,2,0,1,24409,24409,0,24409,,,,,0.00,0.00,0.00,0.00
2014-11-18 18:20:00,2,16137,0,0.00,2,2,0,2,6993,38605,11696,9282,0,0,0,0,0.00,0.00,0.00,0.00
2014-11-18 18:30:00,2,11483,0,0.00,2,2,0,2,5335,26878,6342,10200,0,0,0,0,0.00,0.00,0.00,0.00
2014-11-18 18:40:00,2,10829,7,0.00,2,2,0,2,4368,32404,8252,6925,0,10,5,10,0.00,0.00,0.00,0.00
2014-11-18 18:50:00,2,46714,0,0.00,2,2,0,2,39590,50000,3876,49117,0,0,0,0,0.00,0.00,0.00,0.00
2014-11-18 19:00:00,1,33333,0,0.00,1,2,0,1,0,50000,23570,50000,0,0,0,0,0.00,0.00,0.00,0.00
2014-11-18 19:10:00,1,,,,1,1,0,1,,,,,,,,,,,,
2014-11-18 19:20:00,1,25000,,0.00,1,2,0,1,0,50000,25000,25000,,,,,0.00,0.00,0.00,0.00
2014-11-18 19:30:00,2,50000,0,0.00,2,2,0,2,50000,50000,0,50000,0,0,0,0,0.00,0.00,0.00,0.00
2014-11-18 19:40:00,2,50000,0,0.00,2,2,0,2,50000,50000,0,50000,0,0,0,0,0.00,0.00,0.00,0.00
2014-11-18 19:50:00,2,49959,0,0.00,2,2,0,2,49590,50000,123,50000,0,0,0,0,0.00,0.00,0.00,0.00
2014-11-18 20:00:00,2,50000,0,0.00,1,2,0,2,50000,50000,0,50000,0,0,0,0,0.00,0.00,0.00,0.00
2014-11-18 20:10:00,1,0,,0.00,1,2,0,1,0,0,0,0,,,,,0.00,0.00,0.00,0.00
2014-11-18 20:20:00,1,0,,0.00,1,2,0,1,0,0,0,0,,,,,0.00,0.00,0.00,0.00
2014-11-18 20:30:00,2,42765,0,0.00,2,2,0,2,17965,50000,10689,48876,0,0,0,0,0.00,0.00,0.00,0.00
2014-11-18 20:40:00,1,25000,0,0.00,1,2,0,1,0,50000,25000,25000,0,0,0,0,0.00,0.00,0.00,0.00
2014-11-18 20:50:00,2,17811,56,0.00,1,2,0,2,11361,32881,7270,15980,40,77,17,56,0.00,0.00,0.00,0.00
2014-11-18 21:00:00,2,8348,75,0.00,2,2,0,2,6217,14442,2504,7430,71,77,3,77,0.00,0.00,0.00,0.00
2014-11-18 21:10:00,2,10322,75,0.01,2,2,0,2,6318,14576,2888,10930,71,77,3,77,0.00,0.05,0.02,0.00
2014-11-18 21:20:00,2,11664,44,0.00,1,2,0,2,8850,13785,1903,12145,0,77,36,71,0.00,0.00,0.00,0.00
2014-11-18 21:30:00,1,,,,1,1,0,1,,,,,,,,,,,,
2014-11-18 21:40:00,1,26544,,0.00,1,2,0,1,26544,26544,0,26544,,,,,0.00,0.00,0.00,0.00
2014-11-18 21:50:00,1,,,,1,1,0,1,,,,,,,,,,,,
2014-11-18 22:00:00,1,0,,0.00,1,2,0,1,0,0,0,0,,,,,0.00,0.00,0.00,0.00
2014-11-18 22:10:00,1,,,,1,1,0,1,,,,,,,,,,,,
2014-11-18 22:20:00,1,,,,1,1,0,1,,,,,,,,,,,,
2014-11-18 22:30:00,1,,,,1,1,0,1,,,,,,,,,,,,
2014-11-18 22:40:00,1,,,,1,1,0,1,,,,,,,,,,,,
2014-11-18 22:50:00,1,,,,1,1,0,1,,,,,,,,,,,,
2014-11-18 23:00:00,1,11224,40,0.00,1,2,0,1,0,17883,7983,15790,40,40,0,40,0.00,0.00,0.00,0.00
2014-11-18 23:10:00,2,14288,76,0.04,2,2,0,2,4910,30170,9274,9496,71,77,2,77,0.00,0.10,0.04,0.03
2014-11-18 23:20:00,2,26692,75,0.00,2,2,0,2,14807,41025,8516,25770,71,77,3,77,0.00,0.00,0.00,0.00
2014-11-18 23:30:00,2,35296,22,0.00,2,2,0,2,17337,49958,10282,37904,0,77,34,0,0.00,0.00,0.00,0.00
2014-11-18 23:40:00,1,50000,0,0.00,1,2,0,1,50000,50000,0,50000,0,0,0,0,0.00,0.00,0.00,0.00
2014-11-18 23:50:00,1,,,,1,1,0,1,,,,,,,,,,,,
